UAL809 KSFO-RPLL

Flight info

Callsign UAL809
Flight time N/A
Altitude 30000
Route GNNRR3 ALCOA DCT BUTEN DCT 38N130W 39N140W/N0495F320 39N150W 38N160W 35N170W/N0491F340 31N180E 28N170E 26N160E/N0485F360 22N150E 20N140E 17N130E/N0480F380 DCT MUPOB Z153 POLIO POLIO1C
Aircraft B77W/H-SDE1E2E3FGHIJ2J3J4J5M1RWXY/LB1D1

Departure

Time N/A
Airport San Francisco International Airport (KSFO)

Arrival

Time 2026-05-06 15:07
Airport Ninoy Aquino International Airport (RPLL)
Time Latitude Longitude Altitude Speed Heading
2026-05-06 12:59 18.52899 134.83402 36033 ft 464 kts 253°
2026-05-06 13:00 18.50945 134.76922 36032 ft 464 kts 253°
2026-05-06 13:00 18.49000 134.70475 36032 ft 465 kts 253°
2026-05-06 13:01 18.47040 134.63991 36030 ft 464 kts 253°
2026-05-06 13:01 18.45080 134.57516 36031 ft 464 kts 253°
2026-05-06 13:02 18.43120 134.51052 36033 ft 464 kts 253°
2026-05-06 13:02 18.41156 134.44580 36027 ft 464 kts 253°
2026-05-06 13:03 18.39204 134.38156 36025 ft 464 kts 253°
2026-05-06 13:03 18.37235 134.31684 36027 ft 464 kts 253°
2026-05-06 13:04 18.35266 134.25224 36029 ft 463 kts 253°
2026-05-06 13:04 18.33295 134.18763 36031 ft 464 kts 253°
2026-05-06 13:05 18.31333 134.12343 36026 ft 464 kts 253°
2026-05-06 13:05 18.29356 134.05880 36030 ft 464 kts 253°
2026-05-06 13:06 18.27379 133.99425 36026 ft 463 kts 253°
2026-05-06 13:06 18.25399 133.92969 36027 ft 464 kts 253°
2026-05-06 13:07 18.23417 133.86517 36025 ft 464 kts 253°
2026-05-06 13:07 18.21446 133.80110 36026 ft 464 kts 253°
2026-05-06 13:08 18.19459 133.73656 36025 ft 464 kts 253°
2026-05-06 13:08 18.17470 133.67207 36023 ft 463 kts 253°
2026-05-06 13:09 18.15481 133.60764 36021 ft 463 kts 253°
2026-05-06 13:09 18.13512 133.54394 36021 ft 464 kts 253°
2026-05-06 13:10 18.11505 133.47912 36022 ft 464 kts 253°
2026-05-06 13:10 18.09506 133.41464 36020 ft 464 kts 253°
2026-05-06 13:11 18.07505 133.35016 36020 ft 464 kts 253°
2026-05-06 13:11 18.05504 133.28577 36020 ft 464 kts 253°
2026-05-06 13:12 18.03515 133.22186 36016 ft 463 kts 253°
2026-05-06 13:12 18.01510 133.15751 36017 ft 463 kts 253°
2026-05-06 13:13 17.99504 133.09320 36017 ft 463 kts 253°
2026-05-06 13:13 17.97493 133.02883 36017 ft 463 kts 253°
2026-05-06 13:14 17.95496 132.96498 36016 ft 464 kts 253°
2026-05-06 13:14 17.93482 132.90067 36016 ft 463 kts 253°
2026-05-06 13:15 17.91468 132.83643 36014 ft 463 kts 253°
2026-05-06 13:15 17.89453 132.77224 36014 ft 463 kts 253°
2026-05-06 13:16 17.87446 132.70840 36014 ft 464 kts 253°
2026-05-06 13:16 17.85425 132.64421 36012 ft 463 kts 253°
2026-05-06 13:17 17.83404 132.58008 36014 ft 463 kts 253°
2026-05-06 13:17 17.81379 132.51590 36014 ft 463 kts 252°
2026-05-06 13:18 17.79364 132.45215 36015 ft 463 kts 252°
2026-05-06 13:18 17.77336 132.38800 36011 ft 463 kts 252°
2026-05-06 13:19 17.75305 132.32385 36013 ft 463 kts 252°
2026-05-06 13:19 17.73276 132.25976 36009 ft 463 kts 252°
2026-05-06 13:20 17.71240 132.19569 36009 ft 463 kts 252°
2026-05-06 13:20 17.69216 132.13213 36008 ft 463 kts 252°
2026-05-06 13:21 17.67178 132.06812 36008 ft 463 kts 252°
2026-05-06 13:21 17.65138 132.00412 36009 ft 463 kts 252°
2026-05-06 13:22 17.63096 131.94011 36009 ft 463 kts 252°
2026-05-06 13:22 17.61065 131.87653 36009 ft 463 kts 252°
2026-05-06 13:23 17.59015 131.81248 36008 ft 463 kts 252°
2026-05-06 13:23 17.56965 131.74848 36009 ft 463 kts 252°
2026-05-06 13:24 17.54915 131.68454 36009 ft 463 kts 252°
2026-05-06 13:24 17.52875 131.62101 36009 ft 463 kts 252°
2026-05-06 13:25 17.50821 131.55711 36008 ft 463 kts 252°
2026-05-06 13:25 17.48761 131.49312 36004 ft 464 kts 252°
2026-05-06 13:26 17.46698 131.42910 36001 ft 464 kts 252°
2026-05-06 13:26 17.44649 131.36560 36004 ft 464 kts 252°
2026-05-06 13:27 17.42581 131.30159 36000 ft 464 kts 252°
2026-05-06 13:27 17.40514 131.23759 36003 ft 464 kts 252°
2026-05-06 13:28 17.38446 131.17362 36001 ft 464 kts 252°
2026-05-06 13:28 17.36387 131.11009 36001 ft 464 kts 252°
2026-05-06 13:29 17.34311 131.04616 36003 ft 464 kts 252°
2026-05-06 13:29 17.32230 130.98214 36004 ft 464 kts 252°
2026-05-06 13:30 17.30149 130.91820 36002 ft 464 kts 252°
2026-05-06 13:30 17.28080 130.85471 35997 ft 464 kts 252°
2026-05-06 13:31 17.25990 130.79079 35994 ft 465 kts 252°
2026-05-06 13:31 17.23901 130.72685 35992 ft 465 kts 252°
2026-05-06 13:32 17.21815 130.66286 35993 ft 465 kts 252°
2026-05-06 13:32 17.19721 130.59885 35992 ft 465 kts 252°
2026-05-06 13:33 17.17635 130.53536 35993 ft 465 kts 252°
2026-05-06 13:33 17.15535 130.47140 35998 ft 465 kts 252°
2026-05-06 13:34 17.13434 130.40741 35993 ft 465 kts 252°
2026-05-06 13:34 17.11329 130.34340 35996 ft 466 kts 251°
2026-05-06 13:35 17.09236 130.27982 35991 ft 466 kts 251°
2026-05-06 13:35 17.07127 130.21581 35992 ft 466 kts 251°
2026-05-06 13:36 17.05016 130.15183 35992 ft 466 kts 251°
2026-05-06 13:36 17.02901 130.08778 35993 ft 466 kts 251°
2026-05-06 13:37 17.01143 130.03454 35995 ft 466 kts 251°
2026-05-06 13:37 16.99183 129.95873 35990 ft 466 kts 259°
2026-05-06 13:38 16.98023 129.89215 35993 ft 466 kts 260°
2026-05-06 13:38 16.97061 129.83684 35986 ft 466 kts 259°
2026-05-06 13:39 16.95884 129.77031 35992 ft 466 kts 259°
2026-05-06 13:39 16.94497 129.69303 35988 ft 466 kts 259°
2026-05-06 13:40 16.93298 129.62658 35987 ft 466 kts 259°
2026-05-06 13:40 16.92295 129.57129 35989 ft 466 kts 259°
2026-05-06 13:41 16.91092 129.50483 35985 ft 466 kts 259°
2026-05-06 13:41 16.89890 129.43827 35989 ft 466 kts 259°
2026-05-06 13:42 16.88685 129.37182 35984 ft 466 kts 259°
2026-05-06 13:42 16.87484 129.30580 35988 ft 466 kts 259°
2026-05-06 13:43 16.86273 129.23936 35986 ft 466 kts 259°
2026-05-06 13:43 16.85058 129.17283 35981 ft 467 kts 259°
2026-05-06 13:44 16.83841 129.10631 35987 ft 466 kts 259°
2026-05-06 13:44 16.82623 129.03983 35978 ft 466 kts 259°
2026-05-06 13:45 16.81412 128.97384 35983 ft 466 kts 259°
2026-05-06 13:45 16.79575 128.87405 35981 ft 467 kts 259°
2026-05-06 13:46 16.78347 128.80749 35977 ft 467 kts 259°
2026-05-06 13:46 16.77126 128.74140 35976 ft 467 kts 259°
2026-05-06 13:47 16.75896 128.67496 35979 ft 467 kts 259°
2026-05-06 13:47 16.74662 128.60845 35976 ft 467 kts 259°
2026-05-06 13:48 16.73426 128.54195 35978 ft 467 kts 259°
2026-05-06 13:48 16.72196 128.47587 35984 ft 467 kts 259°
2026-05-06 13:49 16.70955 128.40935 35983 ft 467 kts 259°
2026-05-06 13:49 16.69712 128.34281 35986 ft 468 kts 259°
2026-05-06 13:50 16.68466 128.27625 35985 ft 468 kts 259°
2026-05-06 13:50 16.67226 128.21013 35982 ft 468 kts 259°
2026-05-06 13:51 16.65973 128.14347 35982 ft 468 kts 259°
2026-05-06 13:51 16.64719 128.07685 35979 ft 468 kts 259°
2026-05-06 13:52 16.63462 128.01020 35978 ft 468 kts 258°
2026-05-06 13:52 16.62203 127.94356 35980 ft 468 kts 258°
2026-05-06 13:53 16.60951 127.87743 35980 ft 468 kts 258°
2026-05-06 13:53 16.59689 127.81085 35974 ft 468 kts 258°
2026-05-06 13:54 16.58424 127.74425 35974 ft 469 kts 258°
2026-05-06 13:54 16.57155 127.67757 35981 ft 469 kts 258°
2026-05-06 13:55 16.55892 127.61133 35979 ft 469 kts 258°
2026-05-06 13:55 16.54620 127.54472 35980 ft 469 kts 258°
2026-05-06 13:56 16.53345 127.47812 35984 ft 469 kts 258°
2026-05-06 13:56 16.52067 127.41144 35979 ft 469 kts 258°
2026-05-06 13:57 16.50796 127.34524 35976 ft 469 kts 258°
2026-05-06 13:57 16.49515 127.27865 35983 ft 469 kts 258°
2026-05-06 13:58 16.48231 127.21201 35980 ft 469 kts 258°
2026-05-06 13:58 16.46945 127.14536 35976 ft 469 kts 258°
2026-05-06 13:59 16.45656 127.07871 35974 ft 469 kts 258°
2026-05-06 13:59 16.44375 127.01259 35976 ft 469 kts 258°
2026-05-06 14:00 16.43081 126.94592 35982 ft 469 kts 258°
2026-05-06 14:00 16.41785 126.87927 35982 ft 470 kts 258°
2026-05-06 14:01 16.40486 126.81255 35982 ft 470 kts 258°
2026-05-06 14:01 16.39195 126.74637 35975 ft 470 kts 258°
2026-05-06 14:02 16.37892 126.67970 35968 ft 470 kts 258°
2026-05-06 14:02 16.36588 126.61306 35971 ft 470 kts 258°
2026-05-06 14:03 16.35280 126.54637 35970 ft 470 kts 258°
2026-05-06 14:03 16.33979 126.48018 35966 ft 470 kts 258°
2026-05-06 14:04 16.32667 126.41349 35969 ft 470 kts 258°
2026-05-06 14:04 16.31354 126.34686 35969 ft 470 kts 258°
2026-05-06 14:05 16.30037 126.28020 35969 ft 470 kts 258°
2026-05-06 14:05 16.28718 126.21350 35971 ft 471 kts 258°
2026-05-06 14:06 16.27404 126.14718 35965 ft 471 kts 258°
2026-05-06 14:06 16.26078 126.08039 35977 ft 472 kts 258°
2026-05-06 14:07 16.24750 126.01357 35964 ft 472 kts 258°
2026-05-06 14:07 16.23419 125.94677 35964 ft 472 kts 258°
2026-05-06 14:08 16.22095 125.88040 35974 ft 472 kts 258°
2026-05-06 14:08 16.20759 125.81355 35960 ft 472 kts 258°
2026-05-06 14:09 16.19421 125.74672 35958 ft 472 kts 257°
2026-05-06 14:09 16.18081 125.67989 35957 ft 472 kts 257°
2026-05-06 14:10 16.16739 125.61305 35976 ft 472 kts 257°
2026-05-06 14:10 16.15403 125.54664 35968 ft 472 kts 257°
2026-05-06 14:11 16.14056 125.47983 35968 ft 472 kts 257°
2026-05-06 14:11 16.12705 125.41292 35966 ft 473 kts 257°
2026-05-06 14:12 16.11354 125.34608 35971 ft 472 kts 257°
2026-05-06 14:12 16.10010 125.27972 35970 ft 472 kts 257°
2026-05-06 14:13 16.08652 125.21282 35960 ft 473 kts 257°
2026-05-06 14:13 16.07293 125.14594 35957 ft 473 kts 257°
2026-05-06 14:14 16.05932 125.07907 35960 ft 473 kts 257°
2026-05-06 14:14 16.04569 125.01222 35964 ft 473 kts 257°
2026-05-06 14:15 16.03213 124.94581 35969 ft 473 kts 257°
2026-05-06 14:15 16.01845 124.87897 35966 ft 473 kts 257°
2026-05-06 14:16 16.00474 124.81210 35951 ft 473 kts 257°
2026-05-06 14:16 15.99101 124.74526 35950 ft 473 kts 257°
2026-05-06 14:17 15.97737 124.67893 35965 ft 473 kts 257°
2026-05-06 14:17 15.96361 124.61211 35961 ft 473 kts 257°
2026-05-06 14:18 15.94982 124.54526 35951 ft 473 kts 257°
2026-05-06 14:18 15.93602 124.47844 35946 ft 473 kts 257°
2026-05-06 14:19 15.92220 124.41166 35960 ft 473 kts 257°
2026-05-06 14:19 15.90844 124.34527 35961 ft 473 kts 257°
2026-05-06 14:20 15.89458 124.27852 35960 ft 473 kts 257°
2026-05-06 14:20 15.88068 124.21168 35950 ft 473 kts 257°
2026-05-06 14:21 15.86678 124.14491 35953 ft 473 kts 257°
2026-05-06 14:21 15.85293 124.07850 35958 ft 474 kts 257°
2026-05-06 14:22 15.83896 124.01164 35961 ft 474 kts 257°
2026-05-06 14:22 15.82497 123.94480 35957 ft 474 kts 257°
2026-05-06 14:23 15.81096 123.87794 35948 ft 474 kts 257°
2026-05-06 14:23 15.79692 123.81106 35955 ft 474 kts 257°
2026-05-06 14:24 15.78285 123.74414 35962 ft 475 kts 257°
2026-05-06 14:24 15.76884 123.67763 35957 ft 475 kts 257°
2026-05-06 14:25 15.75472 123.61069 35957 ft 475 kts 257°
2026-05-06 14:25 15.74058 123.54374 35952 ft 475 kts 257°
2026-05-06 14:26 15.72642 123.47684 35960 ft 475 kts 257°
2026-05-06 14:26 15.71224 123.40993 35960 ft 475 kts 257°
2026-05-06 14:27 15.69826 123.34406 35879 ft 476 kts 257°
2026-05-06 14:27 15.69124 123.31104 35693 ft 476 kts 257°
2026-05-06 14:27 15.68411 123.27747 35472 ft 476 kts 257°
2026-05-06 14:28 15.67697 123.24394 35232 ft 476 kts 257°
2026-05-06 14:28 15.66982 123.21037 35008 ft 477 kts 256°
2026-05-06 14:28 15.66261 123.17667 34784 ft 478 kts 256°
2026-05-06 14:28 15.65542 123.14296 34557 ft 479 kts 256°
2026-05-06 14:29 15.64822 123.10920 34329 ft 480 kts 256°
2026-05-06 14:29 15.64098 123.07532 34123 ft 481 kts 256°
2026-05-06 14:29 15.63141 123.04213 33856 ft 480 kts 244°
2026-05-06 14:29 15.61548 123.01173 33626 ft 481 kts 239°
2026-05-06 14:30 15.59852 122.98221 33387 ft 483 kts 239°
2026-05-06 14:30 15.58125 122.95231 33141 ft 484 kts 239°
2026-05-06 14:30 15.56413 122.92223 32884 ft 485 kts 239°
2026-05-06 14:30 15.54726 122.89203 32525 ft 482 kts 240°
2026-05-06 14:31 15.53064 122.86190 32158 ft 481 kts 240°
2026-05-06 14:31 15.51410 122.83172 31808 ft 482 kts 240°
2026-05-06 14:31 15.49760 122.80154 31460 ft 479 kts 240°
2026-05-06 14:31 15.48123 122.77166 31096 ft 473 kts 240°
2026-05-06 14:32 15.46535 122.74269 30718 ft 452 kts 240°
2026-05-06 14:32 15.44999 122.71472 30362 ft 443 kts 240°
2026-05-06 14:32 15.43500 122.68744 30026 ft 440 kts 240°
2026-05-06 14:32 15.41989 122.65998 29626 ft 438 kts 240°
2026-05-06 14:33 15.40484 122.63263 29219 ft 435 kts 240°
2026-05-06 14:33 15.38984 122.60546 28835 ft 433 kts 240°
2026-05-06 14:33 15.37499 122.57856 28455 ft 430 kts 240°
2026-05-06 14:33 15.36018 122.55176 28085 ft 427 kts 240°
2026-05-06 14:34 15.34549 122.52515 27706 ft 425 kts 240°
2026-05-06 14:34 15.33085 122.49864 27337 ft 423 kts 240°
2026-05-06 14:34 15.31621 122.47212 26984 ft 425 kts 240°
2026-05-06 14:34 15.30171 122.44586 26605 ft 424 kts 240°
2026-05-06 14:35 15.29650 122.43643 26457 ft 421 kts 240°
2026-05-06 14:38 15.28907 122.42297 26255 ft 422 kts 240°
2026-05-06 14:38 15.27449 122.39653 25865 ft 423 kts 240°
2026-05-06 14:39 15.25996 122.37021 25474 ft 420 kts 240°
2026-05-06 14:39 15.24551 122.34407 25086 ft 416 kts 240°
2026-05-06 14:39 15.23117 122.31814 24704 ft 414 kts 240°
2026-05-06 14:39 15.21691 122.29238 24326 ft 411 kts 240°
2026-05-06 14:40 15.20275 122.26681 23948 ft 409 kts 240°
2026-05-06 14:40 15.18863 122.24133 23583 ft 408 kts 240°
2026-05-06 14:40 15.17474 122.21625 23156 ft 407 kts 240°
2026-05-06 14:40 15.16068 122.19088 22724 ft 405 kts 240°
2026-05-06 14:41 15.14683 122.16588 22313 ft 404 kts 240°
2026-05-06 14:41 15.13290 122.14077 21891 ft 402 kts 240°
2026-05-06 14:41 15.11904 122.11577 21471 ft 399 kts 240°
2026-05-06 14:41 15.10526 122.09094 21074 ft 396 kts 240°
2026-05-06 14:42 15.09162 122.06636 20791 ft 391 kts 240°
2026-05-06 14:42 15.07808 122.04197 20497 ft 391 kts 240°
2026-05-06 14:42 15.06455 122.01760 20194 ft 391 kts 240°
2026-05-06 14:42 15.05100 121.99321 19898 ft 391 kts 240°
2026-05-06 14:43 15.03746 121.96884 19605 ft 391 kts 240°
2026-05-06 14:43 15.02411 121.94484 19316 ft 389 kts 240°
2026-05-06 14:43 15.01134 121.92009 18994 ft 383 kts 248°
2026-05-06 14:43 15.00333 121.89430 18719 ft 381 kts 253°
2026-05-06 14:44 14.99440 121.86829 18456 ft 386 kts 249°
2026-05-06 14:44 14.98433 121.84249 18155 ft 386 kts 248°
2026-05-06 14:44 14.97410 121.81698 17821 ft 383 kts 247°
2026-05-06 14:45 14.95381 121.76664 17176 ft 376 kts 247°
2026-05-06 14:45 14.94377 121.74177 16840 ft 374 kts 247°
2026-05-06 14:45 14.93376 121.71696 16475 ft 374 kts 247°
2026-05-06 14:45 14.92376 121.69212 16131 ft 374 kts 247°
2026-05-06 14:46 14.91381 121.66737 15777 ft 373 kts 247°
2026-05-06 14:46 14.90403 121.64296 15430 ft 372 kts 247°
2026-05-06 14:46 14.89418 121.61830 15081 ft 370 kts 247°
2026-05-06 14:46 14.88442 121.59374 14741 ft 369 kts 247°
2026-05-06 14:47 14.87471 121.56925 14411 ft 368 kts 247°
2026-05-06 14:47 14.86506 121.54480 14073 ft 367 kts 247°
2026-05-06 14:47 14.85544 121.52037 13731 ft 366 kts 247°
2026-05-06 14:47 14.84588 121.49599 13366 ft 365 kts 247°
2026-05-06 14:48 14.83641 121.47184 12978 ft 362 kts 247°
2026-05-06 14:48 14.82699 121.44788 12608 ft 358 kts 247°
2026-05-06 14:48 14.81762 121.42414 12236 ft 355 kts 247°
2026-05-06 14:48 14.80830 121.40059 11875 ft 353 kts 247°
2026-05-06 14:49 14.79902 121.37723 11522 ft 350 kts 247°
2026-05-06 14:49 14.78992 121.35436 11178 ft 348 kts 247°
2026-05-06 14:49 14.78069 121.33133 10814 ft 346 kts 247°
2026-05-06 14:49 14.77162 121.30879 10467 ft 344 kts 247°
2026-05-06 14:50 14.76248 121.28618 10090 ft 335 kts 247°
2026-05-06 14:50 14.75365 121.26446 9732 ft 321 kts 247°
2026-05-06 14:50 14.74519 121.24357 9346 ft 311 kts 247°
2026-05-06 14:50 14.73678 121.22283 8985 ft 314 kts 247°
2026-05-06 14:51 14.72834 121.20203 8641 ft 314 kts 247°
2026-05-06 14:51 14.71991 121.18118 8273 ft 314 kts 247°
2026-05-06 14:51 14.71157 121.16058 8031 ft 306 kts 247°
2026-05-06 14:51 14.70350 121.14060 7999 ft 298 kts 247°
2026-05-06 14:52 14.69558 121.12101 7967 ft 296 kts 247°
2026-05-06 14:52 14.68763 121.10134 7750 ft 297 kts 247°
2026-05-06 14:52 14.67978 121.08191 7505 ft 297 kts 247°
2026-05-06 14:52 14.67186 121.06229 7279 ft 294 kts 247°
2026-05-06 14:53 14.66416 121.04317 7009 ft 279 kts 247°
2026-05-06 14:53 14.65693 121.02516 6732 ft 265 kts 247°
2026-05-06 14:53 14.65007 121.00805 6467 ft 251 kts 247°
2026-05-06 14:53 14.64353 120.99173 6204 ft 242 kts 246°
2026-05-06 14:54 14.63585 120.97649 6092 ft 239 kts 238°
2026-05-06 14:54 14.62708 120.96176 6066 ft 241 kts 237°
2026-05-06 14:54 14.61818 120.94705 6095 ft 241 kts 237°
2026-05-06 14:54 14.60918 120.93226 6054 ft 244 kts 237°
2026-05-06 14:55 14.60017 120.91743 6030 ft 243 kts 237°
2026-05-06 14:55 14.59124 120.90274 5990 ft 241 kts 237°
2026-05-06 14:55 14.58234 120.88807 5997 ft 241 kts 237°
2026-05-06 14:55 14.57351 120.87351 6017 ft 243 kts 237°
2026-05-06 14:56 14.56451 120.85862 5972 ft 246 kts 237°
2026-05-06 14:56 14.55544 120.84362 5757 ft 247 kts 237°
2026-05-06 14:56 14.54638 120.82864 5506 ft 245 kts 237°
2026-05-06 14:56 14.53738 120.81375 5271 ft 245 kts 237°
2026-05-06 14:57 14.52838 120.79888 5097 ft 242 kts 237°
2026-05-06 14:57 14.51959 120.78433 5040 ft 237 kts 237°
2026-05-06 14:57 14.51088 120.76995 4987 ft 237 kts 237°
2026-05-06 14:57 14.50212 120.75544 5005 ft 240 kts 237°
2026-05-06 14:58 14.49322 120.74070 4999 ft 244 kts 237°
2026-05-06 14:58 14.48428 120.72584 5001 ft 243 kts 237°
2026-05-06 14:58 14.47558 120.71130 4974 ft 240 kts 237°
2026-05-06 14:58 14.46510 120.69851 4960 ft 228 kts 212°
2026-05-06 14:59 14.45083 120.69369 4972 ft 213 kts 177°
2026-05-06 14:59 14.43694 120.69762 4998 ft 206 kts 151°
2026-05-06 14:59 14.42436 120.70475 4997 ft 207 kts 148°
2026-05-06 14:59 14.41216 120.71201 4941 ft 199 kts 147°
2026-05-06 15:00 14.40022 120.71912 4759 ft 197 kts 147°
2026-05-06 15:00 14.38924 120.72725 4489 ft 193 kts 127°
2026-05-06 15:00 14.38476 120.73976 4221 ft 185 kts 92°
2026-05-06 15:00 14.38525 120.75311 4033 ft 188 kts 87°
2026-05-06 15:01 14.38583 120.76628 3791 ft 185 kts 88°
2026-05-06 15:01 14.38640 120.77948 3546 ft 185 kts 87°
2026-05-06 15:01 14.38699 120.79261 3311 ft 181 kts 84°
2026-05-06 15:01 14.39079 120.80487 3093 ft 180 kts 65°
2026-05-06 15:02 14.39624 120.81646 3079 ft 180 kts 64°
2026-05-06 15:02 14.40213 120.82794 3028 ft 182 kts 63°
2026-05-06 15:02 14.40829 120.83930 2999 ft 181 kts 62°
2026-05-06 15:02 14.41454 120.85062 3009 ft 183 kts 61°
2026-05-06 15:03 14.42088 120.86202 2970 ft 183 kts 61°
2026-05-06 15:03 14.42712 120.87320 2705 ft 182 kts 62°
2026-05-06 15:03 14.43343 120.88454 2484 ft 182 kts 61°
2026-05-06 15:03 14.43959 120.89558 2245 ft 171 kts 62°
2026-05-06 15:04 14.44521 120.90566 2019 ft 153 kts 62°
2026-05-06 15:04 14.45026 120.91473 1887 ft 145 kts 61°
2026-05-06 15:04 14.45526 120.92370 1679 ft 144 kts 62°
2026-05-06 15:04 14.46021 120.93263 1511 ft 143 kts 61°
2026-05-06 15:05 14.46512 120.94142 1308 ft 139 kts 60°
2026-05-06 15:05 14.47000 120.95018 1136 ft 144 kts 62°
2026-05-06 15:05 14.47503 120.95921 951 ft 146 kts 61°
2026-05-06 15:05 14.47998 120.96811 811 ft 144 kts 62°
2026-05-06 15:06 14.48499 120.97721 625 ft 146 kts 61°
2026-05-06 15:06 14.49014 120.98617 450 ft 145 kts 63°
2026-05-06 15:06 14.49525 120.99548 255 ft 148 kts 62°
2026-05-06 15:06 14.50036 121.00459 94 ft 143 kts 62°
2026-05-06 15:07 14.50488 121.01269 64 ft 113 kts 61°
2026-05-06 15:07 14.50789 121.01811 65 ft 61 kts 60°
2026-05-06 15:07 14.50912 121.02031 65 ft 21 kts 60°
2026-05-06 15:07 14.51001 121.02178 68 ft 25 kts 53°
2026-05-06 15:08 14.51129 121.02293 68 ft 19 kts 28°
2026-05-06 15:08 14.51189 121.02272 71 ft 4 kts 276°
2026-05-06 15:08 14.51183 121.02253 67 ft 0 kts 248°
2026-05-06 15:08 14.51182 121.02249 71 ft 1 kts 248°
2026-05-06 15:09 14.51174 121.02231 70 ft 4 kts 245°
2026-05-06 15:09 14.51156 121.02196 64 ft 6 kts 242°
2026-05-06 15:09 14.51134 121.02154 64 ft 7 kts 240°
2026-05-06 15:09 14.51106 121.02107 65 ft 8 kts 239°
2026-05-06 15:10 14.51076 121.02053 65 ft 9 kts 241°
2026-05-06 15:10 14.51056 121.01992 71 ft 9 kts 278°
2026-05-06 15:10 14.51096 121.01943 63 ft 9 kts 324°
2026-05-06 15:10 14.51150 121.01903 63 ft 10 kts 320°
2026-05-06 15:11 14.51196 121.01857 63 ft 7 kts 315°
2026-05-06 15:11 14.51234 121.01818 65 ft 8 kts 315°
2026-05-06 15:11 14.51277 121.01774 63 ft 9 kts 315°
2026-05-06 15:11 14.51323 121.01727 68 ft 10 kts 315°
2026-05-06 15:12 14.51372 121.01677 63 ft 10 kts 316°
2026-05-06 15:12 14.51423 121.01626 65 ft 11 kts 316°
2026-05-06 15:12 14.51476 121.01571 63 ft 11 kts 310°
2026-05-06 15:12 14.51529 121.01514 63 ft 11 kts 315°
2026-05-06 15:13 14.51584 121.01457 65 ft 11 kts 315°
2026-05-06 15:13 14.51632 121.01411 64 ft 6 kts 333°
2026-05-06 15:13 14.51669 121.01431 66 ft 7 kts 40°
2026-05-06 15:13 14.51690 121.01450 63 ft 3 kts 43°
2026-05-06 15:14 14.51698 121.01458 66 ft 0 kts 43°